"Pseudo-MPEC" for P21Ok7w

Created 2023 Dec 2 2:22:07 UT using Find_Orb

Click here for an explanation of pseudo-MPECs

 
 Astrometry: 
     P21Ok7w* C2023 11 183]RjYdr12GfN4)0YODl?HeOuR7nQ%R)IemB]XT+xAstrometry\?F52
     P21Ok7w  C2023 11 18'=*:lN-1wL:LX:dLkCXtlCA4[yC@RY_YvCthr[I-:u?/9kT6J)]GF52
     P21Ok7w  C2023 11 18JK($nHV(bi$+=GWxGZ_;0XJ#JY:tbwAfH$jqLy4DWta$Q:%fSAv2F52
     P21Ok7w  C2023 11 18Ey\$m0fj+Sm/w6R=$vNx7S*QXp+SFqyy-WG=DkQ^2(Zs0%HUcyg3F52
     P21Ok7w  C2023 11 18^AY/@2wYYuK\cH/@$Cm*TocJLUl_n3rredacted;#S_@*rSZCi`aF51
     P21Ok7w KC2023 11 19ko'omNGDc#Hj2:)M^Z;X?31y1U_rclick/Sp'J#KheregforZNWlH21
     P21Ok7w KC2023 11 19haMp=1P2ioETnVc.(d=[Zs=^vhK0]_xOUo`_')UL8#]U1e?(!SU7H21
     P21Ok7w KC2023 11 19+`=;#xmqm.Vtke]i]9T#27$flvWx\texplanation99NWUL%sg]GH21

Station data:
(F51) Pan-STARRS 1, Haleakala  (N20.707234 W156.255910)  US/Hawaii.
   Observers J. Bulger, T. Lowe, A. Schultz, M. Willman. Measurers K.
   Chambers, S. Chastel, T. de Boer, L. Denneau, J. Fairlamb, H. Flewelling,
   M. Huber, C.-C. Lin, E. Magnier, Y. Ramanjooloo, R. Wainscoat, R. Weryk.
   1.8-m Ritchey-Chrétien + CCD.
(F52) Pan-STARRS 2, Haleakala  (N20.707382 W156.255910)  US/Hawaii.
   Observers J. Bulger, T. Dukes, T. Lowe, A. Schultz, M. Willman. Measurers
   K. Chambers, S. Chastel, T. de Boer, L. Denneau, J. Fairlamb, H.
   Flewelling, M. Huber, C.-C. Lin, E. Magnier, Y. Ramanjooloo, R. Wainscoat,
   R. Weryk. 1.8-m Ritchey-Chrétien + CCD.
(H21) Astronomical Research Observatory, Westfield  (N39.483054 W87.968270)
   US/Illinois.  Observer R. Holmes. Measurers S. Foglia, L. Buzzi, T.
   Linder, R. Holmes. 0.76-m f/3.0 astrograph + CCD0.81-m f/4.0 astrograph +
   CCD0.61-m f/4.5 astrograph + CCD0.40-m f/5.32 astrograph + CCD.

Orbital elements:  P21Ok7w
   Perihelion 2023 Nov 18.74688 +/- 50.6 TT = 17:55:30 (JD 2460267.24688)
Epoch 2023 Nov 19.0 TT = JDT 2460267.5   Earth MOID: 0.7355      AutoNEOCP
M   0.08894231 +/- 13               (J2000 ecliptic)
n   0.35138389 +/- 0.133            Peri.    1.15078 +/- 27
a   1.98890856 +/- 0.502            Node    79.81328 +/- 0.9
e   0.1351524 +/- 0.228             Incl.   40.07834 +/- 3.6
P   2.80                   H 18.66  G  0.15   U 11.4  SR
q 1.72010275 +/- 0.103    Q 2.25771438 +/- 2.54
From 8 observations 2023 Nov. 18-19 (20.2 hr); mean residual 0".25
Residuals in arcseconds: 
231118 F52  .04+  .25-    231118 F52  .03-  .01-    231119 H21  .02-  .35-    
231118 F52  .07-  .18-    231118 F51  .06+  .77+    231119 H21  .15+  .24-    
231118 F52  .01+  .20-    231119 H21  .19-  .16-    

Ephemerides (geocentric):
Date (UTC) HH   RA             Dec           delta  r     elong  mag " sig PA
---- --------  ------------   ------------  ------ ------ -----  --- --------
2023 12 02 02  07 10 51.056   +32 22 45.84  .82828 1.7213 143.0 20.4 1123   7
2023 12 02 03  07 10 48.852   +32 24 33.86  .82806 1.7213 143.1 20.4 1130   7
2023 12 02 04  07 10 46.640   +32 26 21.93  .82784 1.7213 143.1 20.4 1138   7
2023 12 02 05  07 10 44.421   +32 28 10.06  .82761 1.7213 143.1 20.4 1146   7
2023 12 02 06  07 10 42.194   +32 29 58.23  .82739 1.7213 143.2 20.4 1153   7
2023 12 02 07  07 10 39.959   +32 31 46.45  .82717 1.7213 143.2 20.4 1161   8
2023 12 02 08  07 10 37.717   +32 33 34.71  .82695 1.7213 143.3 20.4 1169   8
2023 12 02 09  07 10 35.466   +32 35 23.03  .82673 1.7214 143.3 20.4 1176   8
2023 12 02 10  07 10 33.208   +32 37 11.39  .82651 1.7214 143.4 20.4 1184   8
2023 12 02 11  07 10 30.943   +32 38 59.80  .82629 1.7214 143.4 20.4 1192   8
2023 12 02 12  07 10 28.669   +32 40 48.26  .82607 1.7214 143.5 20.4 1200   8
2023 12 02 13  07 10 26.388   +32 42 36.76  .82585 1.7214 143.5 20.4 1207   8
2023 12 02 14  07 10 24.099   +32 44 25.32  .82563 1.7214 143.5 20.4 1215   8
2023 12 02 15  07 10 21.802   +32 46 13.91  .82542 1.7214 143.6 20.4 1223   8
2023 12 02 16  07 10 19.497   +32 48 02.56  .82520 1.7214 143.6 20.4 1231   8
2023 12 02 17  07 10 17.185   +32 49 51.25  .82498 1.7214 143.7 20.4 1239   8
2023 12 02 18  07 10 14.864   +32 51 39.99  .82477 1.7214 143.7 20.4 1247   8
2023 12 02 19  07 10 12.536   +32 53 28.77  .82455 1.7214 143.8 20.4 1255   8
2023 12 02 20  07 10 10.200   +32 55 17.60  .82434 1.7214 143.8 20.4 1263   8
2023 12 02 21  07 10 07.856   +32 57 06.48  .82412 1.7214 143.9 20.4 1271   8
2023 12 02 22  07 10 05.505   +32 58 55.40  .82391 1.7215 143.9 20.4 1279   8
2023 12 02 23  07 10 03.145   +33 00 44.37  .82370 1.7215 143.9 20.4 1287   8
2023 12 03 00  07 10 00.778   +33 02 33.38  .82348 1.7215 144.0 20.4 1295   8
2023 12 03 01  07 09 58.402   +33 04 22.44  .82327 1.7215 144.0 20.4 1303   8
2023 12 03 02  07 09 56.019   +33 06 11.54  .82306 1.7215 144.1 20.4 1311   8
2023 12 03 03  07 09 53.628   +33 08 00.69  .82285 1.7215 144.1 20.4 1320   8
2023 12 03 04  07 09 51.229   +33 09 49.88  .82264 1.7215 144.2 20.4 1328   8
2023 12 03 05  07 09 48.823   +33 11 39.11  .82243 1.7215 144.2 20.4 1336   8
2023 12 03 06  07 09 46.408   +33 13 28.39  .82222 1.7215 144.3 20.4 1344   8
2023 12 03 07  07 09 43.985   +33 15 17.72  .82201 1.7215 144.3 20.4 1353   8
2023 12 03 08  07 09 41.555   +33 17 07.08  .82180 1.7215 144.3 20.4 1361   8
2023 12 03 09  07 09 39.117   +33 18 56.49  .82159 1.7215 144.4 20.4 1369   8
2023 12 03 10  07 09 36.670   +33 20 45.95  .82138 1.7216 144.4 20.4 1378   8
2023 12 03 11  07 09 34.216   +33 22 35.44  .82117 1.7216 144.5 20.4 1386   8
2023 12 03 12  07 09 31.754   +33 24 24.98  .82097 1.7216 144.5 20.4 1395   8
2023 12 03 13  07 09 29.284   +33 26 14.57  .82076 1.7216 144.6 20.4 1403   8
2023 12 03 14  07 09 26.806   +33 28 04.19  .82056 1.7216 144.6 20.4 1412   8
2023 12 03 15  07 09 24.320   +33 29 53.86  .82035 1.7216 144.6 20.4 1420   8
2023 12 03 16  07 09 21.826   +33 31 43.57  .82015 1.7216 144.7 20.4 1429   8
2023 12 03 17  07 09 19.324   +33 33 33.32  .81994 1.7216 144.7 20.4 1437   8
2023 12 03 18  07 09 16.814   +33 35 23.11  .81974 1.7216 144.8 20.4 1446   8
2023 12 03 19  07 09 14.296   +33 37 12.95  .81954 1.7216 144.8 20.4 1455   8
2023 12 03 20  07 09 11.770   +33 39 02.82  .81933 1.7216 144.9 20.4 1463   8
2023 12 03 21  07 09 09.236   +33 40 52.74  .81913 1.7216 144.9 20.4 1472   8
2023 12 03 22  07 09 06.694   +33 42 42.70  .81893 1.7217 145.0 20.4 1481   8
2023 12 03 23  07 09 04.144   +33 44 32.70  .81873 1.7217 145.0 20.4 1489   8
2023 12 04 00  07 09 01.586   +33 46 22.74  .81853 1.7217 145.0 20.4 1498   8
2023 12 04 01  07 08 59.020   +33 48 12.82  .81833 1.7217 145.1 20.4 1507   8